Prévision chaque heure sur Domdidier


  Conditions Température Point de rosée PrécipitationProbabilité d'orage Vent Pression UV Index Couverture nuageuse Visibilité
 05:54     21:22   La longueur du jour: 15:28 Aujourd'hui
16:00 30 °
Sensation de: 32.5°
13.3°   40-60%
6
Max: 25 km/h
1013.0 hPa 78% 21 km
17:00 31 °
Sensation de: 31.5°
13.1°   40-60%
7
Max: 26 km/h
1013.0 hPa 78% 21 km
18:00 30 °
Sensation de: 31.2°
13.0°   60-80%
7
Max: 26 km/h
1013.0 hPa 81% 21 km
19:00 29 °
Sensation de: 30.6°
13.3°   60-80%
7
Max: 26 km/h
1013.2 hPa 78% 21 km
20:00 27 °
Sensation de: 28.6°
13.2°   40-60%
7
Max: 25 km/h
1013.6 hPa   63% 22 km
21:00 25 °
Sensation de: 27.4°
13.3°   40-60%
5
Max: 23 km/h
1014.0 hPa   56% 22 km
22:00 22 °
Sensation de: 25.2°
13.3°   20-40%
3
Max: 17 km/h
1014.4 hPa   43% 22 km
23:00 20 °
Sensation de: 22.8°
13.5°   <20%
2
Max: 11 km/h
1014.8 hPa   30% 21 km
 05:55     21:21   La longueur du jour: 15:26 Demain
00:00 18 °
Sensation de: 21.1°
13.6°   <20%
1
Max: 6 km/h
1014.6 hPa   37% 20 km
01:00 17 °
Sensation de: 19.1°
13.6°   <20%
1
Max: 5 km/h
1014.2 hPa   48% 19 km
02:00 16 °
Sensation de: 18.5°
13.4°   0%
0
Max: 5 km/h
1014.0 hPa   62% 19 km
03:00 16 °
Sensation de: 17.4°
13.1°   0%
0
Max: 5 km/h
1014.0 hPa   77% 18 km
04:00 15 °
Sensation de: 16.5°
12.9°   0%
0
Max: 5 km/h
1014.0 hPa   90% 18 km
05:00 15 °
Sensation de: 16.0°
12.6°   0%
0
Max: 5 km/h
1014.0 hPa   100% 18 km
06:00 15 °
Sensation de: 15.3°
12.4°   0%
0
Max: 5 km/h
1014.0 hPa   99% 18 km
07:00 15 °
Sensation de: 16.6°
12.5°   0%
0
Max: 5 km/h
1014.0 hPa   98% 18 km
08:00 17 °
Sensation de: 19.3°
12.9°   <20%
0
Max: 5 km/h
1014.0 hPa   97% 17 km
09:00 20 °
Sensation de: 22.5°
13.2°   <20%
1
Max: 6 km/h
1014.0 hPa 84% 17 km
10:00 22 °
Sensation de: 26.1°
13.5°   20-40%
2
Max: 14 km/h
1014.0 hPa 60% 18 km
11:00 25 °
Sensation de: 28.7°
13.6°   20-40%
3
Max: 19 km/h
1014.0 hPa 32% 18 km
12:00 26 °
Sensation de: 30.0°
13.5°   20-40%
4
Max: 21 km/h
1013.8 hPa 24% 19 km
13:00 28 °
Sensation de: 30.7°
13.3°   20-40%
5
Max: 23 km/h
1013.4 hPa 26% 19 km
14:00 28 °
Sensation de: 31.3°
13.2°   20-40%
5
Max: 23 km/h
1012.8 hPa 31% 20 km
15:00 29 °
Sensation de: 31.4°
13.1°   20-40%
5
Max: 24 km/h
1012.4 hPa 50% 20 km
16:00 29 °
Sensation de: 31.0°
12.9°   20-40%
6
Max: 24 km/h
1012.2 hPa 69% 21 km
17:00 29 °
Sensation de: 31.1°
12.8°   40-60%
6
Max: 25 km/h
1012.6 hPa 86% 21 km
18:00 29 °
Sensation de: 30.8°
12.8°   60-80%
6
Max: 25 km/h
1013.0 hPa 93% 22 km
19:00 28 °
Sensation de: 30.6°
13.0°   60-80%
5
Max: 24 km/h
1013.4 hPa 93% 22 km
20:00 26 °
Sensation de: 28.7°
13.0°   40-60%
5
Max: 22 km/h
1014.0 hPa   91% 22 km
21:00 24 °
Sensation de: 27.4°
13.1°   20-40%
3
Max: 19 km/h
1014.6 hPa   89% 22 km
22:00 22 °
Sensation de: 25.0°
13.2°   20-40%
2
Max: 12 km/h
1015.2 hPa   83% 21 km
23:00 20 °
Sensation de: 23.0°
13.4°   <20%
1
Max: 5 km/h
1015.4 hPa   77% 20 km
 05:56     21:20   La longueur du jour: 15:24 Vendredi 19 Juil
00:00 18 °
Sensation de: 21.6°
13.5°   <20%
0
Max: 5 km/h
1015.4 hPa   68% 20 km
01:00 17 °
Sensation de: 20.1°
13.5°   <20%
0
Max: 5 km/h
1015.0 hPa   68% 19 km
02:00 17 °
Sensation de: 19.5°
13.4°   <20%
0
Max: 5 km/h
1015.4 hPa   76% 18 km
03:00 17 °
Sensation de: 18.8°
13.3°   <20%
0
Max: 5 km/h
1015.8 hPa   74% 18 km
04:00 16 °
Sensation de: 18.1°
13.1°   <20%
0
Max: 5 km/h
1016.0 hPa   72% 18 km
05:00 16 °
Sensation de: 17.2°
12.8°   <20%
0
Max: 5 km/h
1016.0 hPa   72% 17 km
06:00 15 °
Sensation de: 16.5°
12.6°   0%
0
Max: 5 km/h
1016.0 hPa   75% 17 km
07:00 16 °
Sensation de: 17.4°
12.7°   0%
0
Max: 5 km/h
1016.0 hPa   78% 17 km
08:00 17 °
Sensation de: 19.8°
13.0°   0%
0
Max: 5 km/h
1016.0 hPa   80% 17 km
09:00 19 °
Sensation de: 22.5°
13.3°   0%
1
Max: 9 km/h
1016.0 hPa 74% 17 km
10:00 21 °
Sensation de: 24.0°
13.5°   <20%
3
Max: 17 km/h
1016.0 hPa 62% 17 km
11:00 24 °
Sensation de: 26.8°
13.6°   <20%
4
Max: 21 km/h
1016.0 hPa 47% 18 km
12:00 26 °
Sensation de: 28.7°
13.5°   20-40%
5
Max: 22 km/h
1015.8 hPa 37% 18 km
13:00 27 °
Sensation de: 30.2°
13.4°   20-40%
5
Max: 23 km/h
1015.4 hPa 30% 19 km
14:00 28 °
Sensation de: 30.1°
13.3°   20-40%
6
Max: 24 km/h
1014.6 hPa 23% 19 km
15:00 29 °
Sensation de: 30.2°
13.2°   40-60%
7
Max: 25 km/h
1014.2 hPa 50% 20 km